ZF1RC George Town KY current weather conditions

sailwx.info

Wind from 219 at 7 knots gusting 11

Air temperature 25.6° C
Dewpoint 21.6° C

Last reported at 2014-Aug-28 02:50 UTC.
Time now 2014-Aug-28 03:21 UTC

Location: N 19°16' W 081°23'.
View on Google Maps.

See reports from other nearby stations

  
Tides and Currents Weather Stations Pressure Air Temp Water Temp Dewpoint Dewpoint Depression Visibility Wind Speed Wind Dir Waves Ship Positions
date/time (UTC)wind fromknots sea level pressurealtimeterstation pressurevisibilityair tempwater tempwave heightnotes
2014-Aug-28 02:50 219 7 gusting 11 25.6
2014-Aug-28 02:40 181 8 gusting 13 25.6
2014-Aug-28 02:30 156 10 gusting 13 25.6
2014-Aug-28 02:20 179 6 gusting 15 25.6
2014-Aug-28 02:10 183 11 gusting 15 25.0
2014-Aug-28 02:00 157 10 gusting 19 25.0
2014-Aug-28 01:50 192 12 gusting 14 25.0
2014-Aug-28 01:40 183 11 gusting 20 25.0
2014-Aug-28 01:30 180 6 gusting 17 25.0
2014-Aug-28 01:20 160 10 gusting 13 25.6
2014-Aug-28 01:10 113 10 gusting 15 25.6
2014-Aug-28 01:00 135 6 gusting 13 25.6
2014-Aug-28 00:50 148 6 gusting 10 25.6
2014-Aug-28 00:40 156 10 gusting 11 27.2
2014-Aug-28 00:30 113 2 gusting 4 28.9
2014-Aug-28 00:20 171 4 gusting 5 28.3
2014-Aug-28 00:10 136 2 gusting 5 28.3
2014-Aug-28 00:00 114 2 gusting 5 28.3
2014-Aug-27 23:50 177 3 gusting 5 28.9
2014-Aug-27 23:40 204 0 gusting 4 28.9
2014-Aug-27 23:30 111 0 gusting 4 28.9
2014-Aug-27 23:20 220 1 gusting 4 28.9
2014-Aug-27 23:10 160 1 gusting 5 29.4
2014-Aug-27 23:00 123 0 gusting 2 29.4
2014-Aug-27 22:54 170 4 gusting 6 29.4
2014-Aug-27 22:50 124 0 gusting 5 30.0
2014-Aug-27 22:40 095 4 gusting 6 30.0
2014-Aug-27 22:30 240 29.4
2014-Aug-27 22:20 181 3 gusting 5 29.4
2014-Aug-27 22:10 157 1 gusting 6 29.4
2014-Aug-27 22:00 206 2 gusting 8 29.4
2014-Aug-27 21:50 170 6 gusting 6 29.4
2014-Aug-27 21:40 134 0 gusting 6 29.4
2014-Aug-27 21:30 212 6 gusting 6 30.0
2014-Aug-27 21:20 165 6 gusting 6 30.0
2014-Aug-27 21:10 137 6 gusting 8 29.4
2014-Aug-27 21:00 184 3 gusting 6 30.0
2014-Aug-27 20:50 166 4 gusting 6 30.0
2014-Aug-27 20:40 167 6 gusting 8 30.0
2014-Aug-27 20:30 193 5 gusting 8 30.0
2014-Aug-27 20:20 184 6 gusting 10 30.0
2014-Aug-27 20:10 107 5 gusting 10 30.0
2014-Aug-27 20:00 186 2 gusting 7 30.6
2014-Aug-27 19:50 160 4 gusting 10 30.6
2014-Aug-27 19:40 187 5 gusting 7 30.6
2014-Aug-27 19:30 114 3 gusting 6 30.6
2014-Aug-27 19:20 166 6 gusting 8 30.6
2014-Aug-27 19:10 207 4 gusting 7 30.6
2014-Aug-27 19:00 179 4 gusting 7 31.1
2014-Aug-27 18:50 092 4 gusting 6 31.1
2014-Aug-27 18:40 122 2 gusting 6 31.1
2014-Aug-27 18:30 161 5 gusting 8 30.0
2014-Aug-27 18:20 176 4 gusting 6 31.1
2014-Aug-27 18:10 167 1 gusting 6 30.6
2014-Aug-27 18:00 196 2 gusting 5 31.1
2014-Aug-27 17:50 142 2 gusting 5 31.1
2014-Aug-27 17:40 158 3 gusting 7 31.1
2014-Aug-27 17:30 150 3 gusting 7 31.1
2014-Aug-27 17:20 154 4 gusting 11 31.1
2014-Aug-27 17:10 169 5 gusting 6 30.6
2014-Aug-27 17:00 161 1 gusting 6 30.6
2014-Aug-27 16:50 157 4 gusting 7 30.6
2014-Aug-27 16:40 115 4 gusting 7 30.6
2014-Aug-27 16:30 182 5 gusting 6 30.6
2014-Aug-27 16:20 119 2 gusting 6 30.6
2014-Aug-27 16:10 144 0 gusting 10 30.0
2014-Aug-27 16:00 128 4 gusting 6 29.4
2014-Aug-27 15:50 159 2 gusting 6 29.4
2014-Aug-27 15:40 169 1 gusting 7 29.4
2014-Aug-27 15:30 160 2 gusting 5 29.4
2014-Aug-27 15:20 150 4 gusting 5 29.4
2014-Aug-27 15:10 227 4 gusting 6 29.4
2014-Aug-27 15:00 180 6 gusting 7 28.9
2014-Aug-27 14:50 170 4 gusting 5 28.9
2014-Aug-27 14:40 205 3 gusting 6 28.9
2014-Aug-27 14:30 207 5 gusting 6 28.9
2014-Aug-27 14:20 234 4 gusting 6 29.4
2014-Aug-27 14:10 201 2 gusting 8 30.0
2014-Aug-27 14:00 224 3 gusting 6 30.0
2014-Aug-27 13:50 217 4 gusting 6 29.4
2014-Aug-27 13:40 199 2 gusting 6 29.4
2014-Aug-27 13:31 221 3 gusting 5 29.4
2014-Aug-27 13:20 182 4 gusting 5 28.3
2014-Aug-27 13:10 175 5 gusting 6 29.4
2014-Aug-27 13:00 190 4 gusting 6 28.3
2014-Aug-27 12:50 202 3 gusting 6 28.3
2014-Aug-27 12:40 176 5 gusting 7 28.9
2014-Aug-27 12:30 192 4 gusting 6 28.3
2014-Aug-27 12:20 196 6 gusting 7 28.3
2014-Aug-27 12:10 172 5 gusting 7 28.3
2014-Aug-27 12:00 146 4 gusting 8 27.8
2014-Aug-27 11:50 174 6 gusting 7 27.8
2014-Aug-27 11:40 177 3 gusting 5 27.8
2014-Aug-27 11:30 157 3 gusting 6 27.8
2014-Aug-27 11:20 184 5 gusting 6 27.8
2014-Aug-27 11:10 164 5 gusting 6 27.8
2014-Aug-27 11:00 180 3 gusting 6 27.2
2014-Aug-27 10:50 152 3 gusting 7 27.2
2014-Aug-27 10:40 182 4 gusting 6 27.8
2014-Aug-27 10:30 208 3 gusting 6 27.8
2014-Aug-27 10:20 176 5 gusting 6 27.2
2014-Aug-27 10:10 178 3 gusting 6 27.8
2014-Aug-27 10:00 172 5 gusting 8 27.8
2014-Aug-27 09:50 159 4 gusting 7 27.8
2014-Aug-27 09:40 185 6 gusting 8 27.8
2014-Aug-27 09:30 192 6 gusting 8 27.8
2014-Aug-27 09:20 196 8 gusting 8 27.8
2014-Aug-27 09:10 169 5 gusting 8 27.8
2014-Aug-27 09:00 168 5 gusting 7 27.8
2014-Aug-27 08:50 181 7 gusting 10 27.8
2014-Aug-27 08:40 169 5 gusting 6 27.8
2014-Aug-27 08:30 139 4 gusting 6 27.8
2014-Aug-27 08:20 171 6 gusting 11 27.8
2014-Aug-27 08:10 150 5 gusting 10 27.8
2014-Aug-27 08:00 127 7 gusting 10 27.8
2014-Aug-27 07:50 140 4 gusting 8 27.8
2014-Aug-27 07:40 112 6 gusting 8 27.8
2014-Aug-27 07:30 169 6 gusting 10 27.8
2014-Aug-27 07:20 199 3 gusting 7 28.3
2014-Aug-27 07:10 169 6 gusting 8 27.8
2014-Aug-27 07:00 168 5 gusting 6 27.8
2014-Aug-27 06:50 168 6 gusting 7 27.8
2014-Aug-27 06:40 178 4 gusting 5 27.8
2014-Aug-27 06:30 188 5 gusting 8 27.8
2014-Aug-27 06:20 155 4 gusting 10 28.3
2014-Aug-27 06:10 178 5 gusting 6 27.8
2014-Aug-27 06:00 178 6 gusting 7 27.8
2014-Aug-27 05:50 167 4 gusting 6 27.8
2014-Aug-27 05:40 176 2 gusting 5 27.8
2014-Aug-27 05:30 160 5 gusting 6 27.8
2014-Aug-27 05:20 168 4 gusting 6 27.8
2014-Aug-27 05:10 171 1 gusting 5 27.8
2014-Aug-27 05:00 173 2 gusting 5 27.8
2014-Aug-27 04:50 202 2 gusting 5 27.8
2014-Aug-27 04:40 183 4 gusting 5 27.8
2014-Aug-27 04:30 202 3 gusting 5 27.8
2014-Aug-27 04:20 166 2 gusting 4 27.8
2014-Aug-27 04:10 170 1 gusting 2 27.8
2014-Aug-27 04:00 171 3 gusting 4 27.8
2014-Aug-27 03:50 176 2 gusting 2 27.8
2014-Aug-27 03:40 151 1 gusting 2 27.8
2014-Aug-27 03:30 174 0 gusting 1 27.8
2014-Aug-27 03:20 220 0 gusting 1 27.8
2014-Aug-27 03:10 216 1 gusting 2 27.8
2014-Aug-27 03:00 183 1 gusting 2 27.8
2014-Aug-27 02:50 175 1 gusting 1 27.8
2014-Aug-27 02:40 176 0 gusting 1 27.8
2014-Aug-27 02:30 199 0 gusting 0 27.8
2014-Aug-27 02:20 158 0 gusting 1 27.8
2014-Aug-27 02:10 178 0 gusting 2 27.8
2014-Aug-27 02:00 191 1 gusting 6 27.8
2014-Aug-27 01:50 204 6 gusting 6 31.7
2014-Aug-27 01:40 204 6 gusting 6 31.7
2014-Aug-27 01:30 204 6 gusting 6 31.7
2014-Aug-27 01:20 204 6 gusting 6 31.7
2014-Aug-27 01:10 204 6 gusting 6 31.7
2014-Aug-27 01:00 204 6 gusting 6 31.7
2014-Aug-27 00:50 204 6 gusting 6 31.7
2014-Aug-27 00:40 204 6 gusting 6 31.7
2014-Aug-27 00:30 204 6 gusting 6 31.7
2014-Aug-27 00:20 204 6 gusting 6 31.7
2014-Aug-27 00:10 204 6 gusting 6 31.7
2014-Aug-27 00:00 204 6 gusting 6 31.7
2014-Aug-26 23:50 204 6 gusting 6 31.7
2014-Aug-26 23:40 204 6 gusting 6 31.7
2014-Aug-26 23:30 204 6 gusting 6 31.7
2014-Aug-26 23:20 204 6 gusting 6 31.7
2014-Aug-26 23:10 204 6 gusting 6 31.7
2014-Aug-26 23:00 204 6 gusting 6 31.7
2014-Aug-26 22:54 204 6 gusting 6 31.7
2014-Aug-26 22:50 204 6 gusting 6 31.7
2014-Aug-26 22:40 204 6 gusting 6 31.7
2014-Aug-26 22:30 204 6 gusting 6 31.7
2014-Aug-26 22:20 204 6 gusting 6 31.7
2014-Aug-26 22:10 204 6 gusting 6 31.7
2014-Aug-26 22:00 204 6 gusting 6 31.7
2014-Aug-26 21:50 204 6 gusting 6 31.7
2014-Aug-26 21:40 204 6 gusting 6 31.7
2014-Aug-26 21:30 204 6 gusting 6 31.7
2014-Aug-26 21:20 204 6 gusting 6 31.7
2014-Aug-26 21:10 204 6 gusting 6 31.7
2014-Aug-26 21:00 204 6 gusting 6 31.7
2014-Aug-26 20:50 204 6 gusting 6 31.7
2014-Aug-26 20:40 204 6 gusting 6 31.7
2014-Aug-26 20:30 204 6 gusting 6 31.7
2014-Aug-26 20:20 204 6 gusting 6 31.7
2014-Aug-26 20:10 204 6 gusting 6 31.7
2014-Aug-26 20:00 204 6 gusting 6 31.7
2014-Aug-26 19:50 204 6 gusting 6 31.7
2014-Aug-26 19:40 204 6 gusting 6 31.7
2014-Aug-26 19:30 204 6 gusting 6 31.7
2014-Aug-26 19:20 204 6 gusting 6 31.7
2014-Aug-26 19:10 204 6 gusting 6 31.7
2014-Aug-26 19:00 204 6 gusting 6 31.7
2014-Aug-26 18:50 204 6 gusting 6 31.7
2014-Aug-26 18:40 204 6 gusting 6 31.7
2014-Aug-26 18:30 204 6 gusting 6 31.7
2014-Aug-26 18:20 204 6 gusting 6 31.7
2014-Aug-26 18:10 204 6 gusting 6 31.7
2014-Aug-26 18:00 204 6 gusting 6 31.7
2014-Aug-26 17:50 204 6 gusting 6 31.7
2014-Aug-26 17:40 204 6 gusting 6 31.7
2014-Aug-26 17:30 204 6 gusting 6 31.7
2014-Aug-26 17:20 204 6 gusting 6 31.7
2014-Aug-26 17:10 204 6 gusting 6 31.7
2014-Aug-26 17:00 238 5 gusting 6 31.7
2014-Aug-26 16:50 273 0 gusting 6 31.7
2014-Aug-26 16:40 216 1 gusting 5 31.7
2014-Aug-26 16:30 255 2 gusting 6 31.7
2014-Aug-26 16:20 224 3 gusting 5 31.1
2014-Aug-26 16:10 319 2 gusting 6 31.1
2014-Aug-26 16:00 272 2 gusting 5 31.1
2014-Aug-26 15:50 234 4 gusting 5 31.1
2014-Aug-26 15:40 247 1 gusting 5 31.1
2014-Aug-26 15:30 277 2 gusting 6 31.1
2014-Aug-26 15:20 307 2 gusting 4 31.1
2014-Aug-26 15:10 282 4 gusting 5 31.1
2014-Aug-26 15:00 275 3 gusting 4 30.6
2014-Aug-26 14:50 273 2 gusting 5 30.6
2014-Aug-26 14:40 250 2 gusting 4 30.6
2014-Aug-26 14:30 248 1 gusting 5 31.1
2014-Aug-26 14:20 247 3 gusting 5 30.6
2014-Aug-26 14:10 314 2 gusting 4 30.6
2014-Aug-26 14:00 256 1 gusting 5 30.0
2014-Aug-26 13:50 250 1 gusting 4 30.6
2014-Aug-26 13:40 222 2 gusting 5 30.0
2014-Aug-26 13:30 255 2 gusting 4 30.0
2014-Aug-26 13:20 232 1 gusting 2 30.0
2014-Aug-26 13:10 219 2 gusting 4 29.4
2014-Aug-26 13:00 253 3 gusting 5 28.9
2014-Aug-26 12:50 230 2 gusting 2 28.9
2014-Aug-26 12:40 286 0 gusting 4 28.3
2014-Aug-26 12:30 218 1 gusting 1 28.3
2014-Aug-26 12:20 232 1 gusting 1 28.3
2014-Aug-26 12:10 282 0 gusting 0 27.8
2014-Aug-26 12:00 271 0 gusting 1 27.8
2014-Aug-26 11:50 265 0 gusting 1 27.2
2014-Aug-26 11:40 278 27.2
2014-Aug-26 11:30 299 0 gusting 1 27.2
2014-Aug-26 11:20 302 1 gusting 1 26.7
2014-Aug-26 11:10 299 0 gusting 1 27.2
2014-Aug-26 11:00 229 1 gusting 1 27.2
2014-Aug-26 10:50 295 0 gusting 1 26.7
2014-Aug-26 10:40 262 0 gusting 1 26.7
2014-Aug-26 10:30 209 0 gusting 0 26.7
2014-Aug-26 10:20 225 0 gusting 0 26.7
2014-Aug-26 10:10 292 26.7
2014-Aug-26 10:00 262 0 gusting 1 26.7
2014-Aug-26 09:50 262 0 gusting 0 27.2
2014-Aug-26 09:40 237 0 gusting 1 27.2
2014-Aug-26 09:30 211 1 gusting 1 27.2
2014-Aug-26 09:20 275 0 gusting 2 27.2
2014-Aug-26 09:10 310 1 gusting 2 27.2
2014-Aug-26 09:00 265 0 gusting 2 27.2
2014-Aug-26 08:50 272 1 gusting 4 27.2
2014-Aug-26 08:40 276 0 gusting 2 27.2
2014-Aug-26 08:30 256 1 gusting 4 27.2
2014-Aug-26 08:20 255 0 gusting 2 26.7
2014-Aug-26 08:10 246 1 gusting 1 26.7
2014-Aug-26 08:00 311 1 gusting 1 26.7
2014-Aug-26 07:50 266 0 gusting 1 26.7
2014-Aug-26 07:40 280 0 gusting 1 26.7
2014-Aug-26 07:30 274 1 gusting 1 26.7
2014-Aug-26 07:20 243 0 gusting 0 26.7
2014-Aug-26 07:10 247 0 gusting 0 26.7
2014-Aug-26 07:00 239 26.7
2014-Aug-26 06:50 229 26.7
2014-Aug-26 06:40 213 26.7
2014-Aug-26 06:30 204 26.7
2014-Aug-26 06:20 232 0 gusting 1 26.7
2014-Aug-26 06:10 221 0 gusting 1 26.7
2014-Aug-26 06:00 186 0 gusting 0 26.7
2014-Aug-26 05:50 207 0 gusting 0 26.7
2014-Aug-26 05:40 197 0 gusting 1 26.7
2014-Aug-26 05:30 201 0 gusting 0 26.1
2014-Aug-26 05:20 175 26.1
2014-Aug-26 05:10 157 26.1
2014-Aug-26 05:00 157 26.1
2014-Aug-26 04:50 160 0 gusting 0 26.1
2014-Aug-26 04:40 167 26.1
2014-Aug-26 04:30 167 26.7
2014-Aug-26 04:20 167 26.7
2014-Aug-26 04:10 194 26.7
2014-Aug-26 04:00 237 26.7
2014-Aug-26 03:50 040 26.7
2014-Aug-26 03:40 348 27.2
2014-Aug-26 03:30 303 0 gusting 0 27.2
2014-Aug-26 03:20 311 27.2
2014-Aug-26 03:10 326 0 gusting 0 27.2
2014-Aug-26 03:00 299 27.2